Simultaneous Nadir Overpasses (SNOs) Predictions

Prediction of SNOs between NOAA-20 and NOAA-19 Satellite Orbit:

Table of predicted SNOs for the next 14.0 days since TLE Epoch: 11/12/2022
Index Date (NOAA-20) Time (NOAA-20) Lat,Lon (NOAA-20) SZA (NOAA-20 ) Date (NOAA-19) Time (NOAA-19) Lat,Lon (NOAA-19) SZA (NOAA-19 ) Distance(km) Time Diff (sec)
1 11/25/2022 05:24:10 75.63, 83.55 96.60 11/25/2022 05:23:04 75.65, 80.39 96.81 87.28 66
2 11/25/2022 06:15:04 -76.12,-110.73 82.85 11/25/2022 06:13:54 -76.11,-110.74 82.84 1.04 70
3 11/25/2022 07:05:49 76.10, 56.62 97.15 11/25/2022 07:04:52 76.13, 56.59 97.19 2.61 57
4 11/25/2022 07:56:34 -76.12,-136.13 82.83 11/25/2022 07:55:53 -76.13,-136.13 82.81 1.17 41
5 11/25/2022 08:47:20 76.16, 31.06 97.23 11/25/2022 08:46:51 76.15, 31.19 97.22 3.57 29
6 11/25/2022 09:38:04 -76.13,-161.53 82.80 11/25/2022 09:37:52 -76.16,-161.53 82.77 3.38 12
7 11/25/2022 10:28:50 76.16, 5.66 97.25 11/25/2022 10:28:51 76.13, 5.63 97.22 3.34 1
8 11/25/2022 11:19:34 -76.14, 173.07 82.78 11/25/2022 11:19:52 -76.14, 172.91 82.77 4.26 18
9 11/25/2022 12:10:20 76.17, -19.74 97.27 11/25/2022 12:10:50 76.16, -19.77 97.26 1.34 30
10 11/25/2022 13:01:05 -76.19, 147.51 82.71 11/25/2022 13:01:51 -76.17, 147.52 82.73 2.15 46
11 11/25/2022 13:51:50 76.18, -45.14 97.29 11/25/2022 13:52:49 76.19, -45.16 97.29 1.23 59
12 11/25/2022 14:42:35 -76.20, 122.11 82.68 11/25/2022 14:43:50 -76.20, 122.12 82.70 0.28 75



Historial Predications of SNOs between NOAA-20 and NOAA-19
